Regional Weather Roundup
Issued by NWS Little Rock, AR

Home | Current Version | Previous Version | Text Only | Print | Product List | Glossary On
Versions: 1 2 3 4 5 6 7 8 9 10 11 12 13 14 15 16 17 18 19 20 21 22 23 24 25 26 27 28 29 30 31 32 33 34 35 36 37 38 39 40 41 42 43 44 45 46 47 48
000
ASUS44 KLZK 040905
RWRLZK

WEATHER ROUNDUP FOR ARKANSAS
NATIONAL WEATHER SERVICE LITTLE ROCK AR
400 AM CDT SAT JUL 04 2015

NOTE: "FAIR" INDICATES FEW OR NO CLOUDS BELOW 12,000 FEET WITH NO
SIGNIFICANT WEATHER AND/OR OBSTRUCTIONS TO VISIBILITY.

ARZ001-003-010-029-041000-
NORTHWEST ARKANSAS

CITY           SKY/WX    TMP DP  RH WIND       PRES   REMARKS
FAYETTEVILLE   FOG       65  65 100 CALM      29.96S VSB 1/4
FORT SMITH     CLEAR     71  68  90 CALM      29.91S
HARRISON       FOG       68  68 100 NW3       29.96F VSB<1/4
BENTONVILLE    CLEAR    N/A N/A N/A CALM      29.96S
ROGERS         PTCLDY    69  68  96 NE3       29.97S FOG
SILOAM SPGS    CLEAR     66  61  82 CALM        N/A
HIGHFILL       MOCLDY    67  66  97 CALM      29.95F FOG
$$

ARZ004-005-016-041000-
NORTH CENTRAL ARKANSAS

CITY           SKY/WX    TMP DP  RH WIND       PRES   REMARKS
BATESVILLE     CLOUDY    66  66 100 CALM      29.91S VSB 1/2
FLIPPIN        CLOUDY    66  64  94 CALM      29.92S VSB 1/4
MTN HOME       PTCLDY    68  67  96 CALM      29.93F
$$

ARZ040-041-041000-
WEST CENTRAL ARKANSAS

CITY           SKY/WX    TMP DP  RH WIND       PRES   REMARKS
MENA           CLOUDY    72  70  94 N5        29.95S
MOUNT IDA      HVY RAIN  71  69  93 CALM      29.92R FOG
$$

ARZ009-017-025-026-028-041000-
NORTHEAST ARKANSAS

CITY           SKY/WX    TMP DP  RH WIND       PRES   REMARKS
JONESBORO      MOCLDY    68  68 100 NE5       29.90R
NEWPORT        CLEAR     70  70 100 NW5       29.91S
WALNUT RIDGE   CLOUDY    72  70  94 CALM      29.91R VSB<1/4
BLYTHEVILLE    CLOUDY    73  73 100 S5        29.91R
$$

ARZ022-023-033-042-044-041000-
CENTRAL ARKANSAS

CITY           SKY/WX    TMP DP  RH WIND       PRES   REMARKS
LITTLE ROCK    MOCLDY    70  67  90 S3        29.95R
N LITTLE ROCK    N/A     68  68 100 S3        29.95R
JACKSONVILLE   MOCLDY    69  69  99 S5        29.94R
SEARCY         PTCLDY    70  69  97 S3        29.94R
HOT SPRINGS    MOCLDY    70  69  97 CALM      29.94R
RUSSELLVILLE   MOCLDY    70  69  97 CALM      29.93R
CLINTON        FAIR      66  66 100 CALM      29.94S FOG
$$

ARZ036-041000-
EAST ARKANSAS

CITY           SKY/WX    TMP DP  RH WIND       PRES   REMARKS
WEST MEMPHIS   MOCLDY    72  72 100 CALM      29.89R
$$

ARZ050-053-066-070-073-041000-
SOUTHWEST ARKANSAS

CITY           SKY/WX    TMP DP  RH WIND       PRES   REMARKS
ARKADELPHIA    TSTM      73  73 100 SW12      29.94F
CAMDEN         RAIN      72  68  88 MISG      29.96R
TEXARKANA      MOCLDY    77  73  87 SW12      29.93R
EL DORADO      CLOUDY    78  73  84 S8        29.94R
DE QUEEN       TSTM      74  73  97 S3        29.89S FOG
$$

ARZ056-057-069-041000-
SOUTHEAST ARKANSAS

CITY           SKY/WX    TMP DP  RH WIND       PRES   REMARKS
PINE BLUFF     LGT RAIN  73  70  90 SW12      29.94R
STUTTGART      MOCLDY    72  66  83 W6        29.93R
MONTICELLO     TSTM      70  70 100 W10G32    29.99R FOG

$$





USA.gov is the U.S. government's official web portal to all federal, state and local government web resources and services.